Date,TemperatureHighF,TemperatureAvgF,TemperatureLowF,DewpointHighF,DewpointAvgF,DewpointLowF,HumidityHigh,HumidityAvg,HumidityLow,PressureMaxIn,PressureMinIn,WindSpeedMaxMPH,WindSpeedAvgMPH,GustSpeedMaxMPH,PrecipitationSumIn
2013-1-1,43.7,39.9,35.6,41.1,36.3,30.1,92,87,76,30.10,29.96,8,1,8,0.48
2013-1-2,42.5,37.1,35.3,40.1,33.8,31.8,91,88,84,30.15,29.99,5,1,8,0.02
2013-1-3,44.5,36.6,31.7,34.0,30.0,24.0,87,77,55,30.33,30.13,4,0,4,0.00
2013-1-4,41.0,32.7,27.0,28.0,24.0,21.3,82,71,54,30.40,30.31,5,1,5,0.00
2013-1-5,47.0,35.6,25.9,31.9,26.2,20.3,81,69,50,30.39,30.22,5,1,5,0.05
2013-1-6,43.9,39.0,36.4,36.6,34.0,29.9,91,82,73,30.28,30.11,7,2,7,0.04
2013-1-7,52.2,38.4,29.9,37.1,29.0,24.2,80,70,51,30.40,30.27,6,1,6,0.00
2013-1-8,58.3,41.3,30.2,39.7,30.5,24.2,81,66,49,30.40,30.27,5,1,5,0.00
2013-1-9,47.5,44.2,40.7,43.7,37.5,29.4,89,77,62,30.46,30.29,4,1,4,0.07
2013-1-10,61.4,53.4,46.6,53.7,48.4,43.7,90,83,75,30.46,30.18,6,1,6,0.00
2013-1-11,67.1,59.7,55.3,60.8,54.7,48.6,91,84,77,30.18,30.06,7,2,7,0.04
2013-1-12,71.1,64.1,59.9,63.7,60.0,57.0,92,87,76,30.16,30.02,4,1,6,0.02
2013-1-13,65.9,60.7,54.9,58.9,56.0,52.0,92,85,76,30.07,29.97,6,1,6,0.68
2013-1-14,59.0,46.5,38.9,56.7,44.1,36.2,92,91,90,30.29,30.02,6,1,6,1.97
2013-1-15,43.9,42.2,40.5,42.0,40.2,38.3,93,93,92,30.18,29.96,5,0,5,2.81
2013-1-16,48.8,45.0,42.3,47.2,43.2,40.4,94,93,93,30.06,29.90,6,1,6,0.78
2013-1-17,42.8,37.4,31.7,41.0,35.3,29.4,93,92,91,30.31,29.94,8,1,8,1.23
2013-1-18,43.6,33.2,27.0,36.8,29.7,24.8,92,87,72,30.51,30.31,5,0,5,0.36
2013-1-19,47.5,35.7,27.0,37.3,30.5,24.2,90,82,66,30.40,30.14,4,1,4,0.14
2013-1-20,54.5,43.2,36.0,38.5,32.3,26.9,77,66,52,30.18,30.10,7,2,7,0.00
2013-1-21,44.3,34.7,27.7,27.0,15.2,11.3,64,45,35,30.16,30.06,10,4,10,0.00
2013-1-22,34.0,25.9,20.2,11.8,5.4,1.0,54,42,28,30.31,30.14,8,3,8,0.00
2013-1-23,43.6,32.7,24.5,28.0,13.9,1.8,63,46,35,30.32,30.08,9,2,9,0.00
2013-1-24,40.5,32.8,24.1,30.6,16.5,6.2,69,52,35,30.37,30.06,8,2,11,0.00
2013-1-25,33.3,28.6,23.4,31.1,20.8,6.2,92,74,47,30.32,30.06,3,0,3,0.00
2013-1-26,41.9,34.7,29.9,34.1,30.1,25.2,92,83,71,30.34,30.14,5,1,5,0.11
2013-1-27,46.4,36.3,27.0,37.5,30.2,22.8,86,79,68,30.40,30.28,5,0,5,0.03
2013-1-28,56.2,46.9,38.9,47.0,40.7,34.5,87,79,64,30.33,30.20,7,1,7,0.02
2013-1-29,67.1,56.4,46.6,56.1,49.9,43.8,91,80,66,30.21,29.89,4,1,5,0.01
2013-1-30,66.4,56.0,42.1,58.1,50.8,36.0,92,83,72,29.89,29.51,15,3,15,2.42
2013-1-31,42.1,35.8,31.9,36.3,25.5,22.0,86,66,49,30.00,29.63,15,5,15,0.01
2013-2-1,39.6,26.7,16.9,30.8,14.9,6.8,85,61,43,30.35,29.93,14,3,14,0.00
2013-2-2,34.2,27.4,22.5,29.9,20.7,12.8,87,76,63,30.31,30.03,5,1,5,0.00
2013-2-3,39.8,33.9,30.2,33.9,28.4,21.4,92,80,65,30.13,29.95,11,3,11,0.10
2013-2-4,45.0,34.8,26.6,31.1,25.7,20.3,82,70,54,30.11,29.93,4,1,4,0.00
2013-2-5,57.4,46.0,39.8,40.8,35.3,28.9,74,66,53,29.99,29.91,8,2,8,0.00
2013-2-6,62.3,47.3,38.5,37.6,32.3,28.1,74,58,35,30.18,29.99,6,1,6,0.00
2013-2-7,56.7,47.5,41.6,40.3,34.2,27.9,78,60,50,30.13,29.91,8,2,8,0.00
2013-2-8,51.8,44.1,35.1,45.9,37.2,27.1,92,77,59,30.24,29.88,10,2,10,0.09
2013-2-9,58.0,40.1,29.3,34.9,27.2,23.0,79,62,40,30.32,30.18,6,1,6,0.00
2013-2-10,61.2,46.7,39.1,39.9,30.8,23.6,82,56,32,30.21,29.96,8,1,8,0.12
2013-2-11,55.4,49.8,44.5,51.2,42.4,31.3,93,77,57,30.09,29.95,9,2,9,0.02
2013-2-12,52.4,45.1,38.9,35.5,30.6,27.3,72,57,44,30.15,29.85,7,1,7,0.01
2013-2-13,45.9,41.6,36.5,43.2,36.9,31.9,92,84,71,29.95,29.64,9,2,9,0.20
2013-2-14,54.5,41.5,33.8,36.7,32.7,29.7,87,72,49,30.04,29.94,6,1,6,0.00
2013-2-15,55.4,41.5,35.3,40.3,33.6,29.1,82,74,52,30.06,29.96,8,1,10,0.07
2013-2-16,37.1,31.4,25.6,29.1,22.2,10.7,81,69,46,30.04,29.93,9,2,9,0.00
2013-2-17,43.9,30.4,22.7,17.6,13.2,10.2,65,50,29,30.19,30.04,8,2,8,0.00
2013-2-18,62.5,41.1,27.0,36.2,22.8,12.5,57,49,36,30.24,29.94,8,2,8,0.00
2013-2-19,53.5,42.8,34.7,40.1,29.4,16.5,91,62,30,30.10,29.88,13,4,13,0.24
2013-2-20,40.9,33.5,27.7,18.6,15.9,12.9,63,49,33,30.17,30.10,5,2,7,0.00
2013-2-21,47.0,29.1,25.6,25.5,15.5,13.8,63,56,43,30.16,30.04,4,0,4,0.00
2013-2-22,54.2,50.5,43.9,45.9,43.7,39.1,83,78,72,30.06,29.99,4,1,4,0.00
2013-2-23,56.0,48.3,44.6,49.0,44.1,40.7,90,85,75,30.02,29.85,5,1,5,0.09
2013-2-24,61.0,43.9,34.9,40.7,30.5,24.0,86,61,37,30.07,29.89,4,1,7,0.00
2013-2-25,65.5,45.2,35.1,39.2,29.3,23.0,63,54,36,30.05,29.83,8,2,8,0.00
2013-2-26,61.4,48.6,42.1,50.2,40.2,33.1,87,73,50,29.83,29.45,15,5,15,0.32
2013-2-27,47.2,40.5,38.2,35.1,33.4,31.9,82,76,62,29.84,29.68,10,4,10,0.02
2013-2-28,39.8,36.2,33.5,32.0,28.3,25.1,86,73,59,29.97,29.78,8,4,8,0.00
2013-3-1,41.4,36.2,33.7,34.5,30.6,27.6,85,80,72,29.97,29.91,5,2,5,0.03
2013-3-2,40.5,34.1,29.2,32.8,27.4,20.6,87,77,64,30.03,29.90,11,2,11,0.00
2013-3-3,33.8,29.3,23.9,21.7,19.1,16.5,75,65,56,30.07,30.01,6,2,6,0.00
2013-3-4,51.1,36.9,24.3,26.7,21.5,16.0,73,55,34,30.16,29.99,5,1,5,0.00
2013-3-5,46.8,40.6,33.1,44.4,33.1,22.6,92,76,49,30.02,29.62,12,3,12,1.50
2013-3-6,33.1,30.6,28.1,28.5,26.7,22.4,91,85,74,30.23,29.81,10,2,10,0.01
2013-3-7,36.2,33.1,31.0,29.8,27.9,26.7,86,81,76,30.33,30.20,4,0,4,0.01
2013-3-8,58.7,39.0,28.6,37.8,28.2,23.0,80,66,42,30.39,30.28,7,1,7,0.00
2013-3-9,66.4,47.2,31.9,37.6,30.9,24.0,75,55,33,30.29,30.16,5,1,5,0.00
2013-3-10,71.5,57.3,45.7,42.2,36.7,32.3,62,47,32,30.16,30.00,5,1,5,0.00
2013-3-11,63.7,55.3,48.6,50.8,43.9,33.6,89,67,46,30.01,29.76,10,2,10,0.64
2013-3-12,57.1,43.9,37.8,45.2,35.3,30.0,90,73,44,30.08,29.86,6,2,6,0.13
2013-3-13,44.5,38.8,31.9,30.2,25.6,17.9,74,60,43,30.27,30.04,12,3,12,0.00
2013-3-14,48.8,36.4,26.1,23.5,18.9,15.7,66,50,36,30.35,30.21,5,2,5,0.00
2013-3-15,68.2,48.9,33.5,43.6,32.8,20.0,71,55,39,30.23,29.89,8,2,8,0.00
2013-3-16,75.6,64.3,58.3,50.7,46.3,42.4,59,52,41,29.92,29.78,12,4,12,0.00
2013-3-17,71.8,62.3,53.8,52.1,47.7,44.7,75,60,40,29.98,29.84,9,2,9,0.00
2013-3-18,60.8,51.8,48.8,51.7,45.9,42.4,90,81,68,29.92,29.78,7,2,7,1.46
2013-3-19,61.2,47.8,38.0,48.4,31.4,13.5,92,58,20,30.12,29.83,10,3,10,0.01
2013-3-20,54.7,42.6,33.7,27.6,18.8,14.6,63,40,23,30.12,29.86,12,2,12,0.00
2013-3-21,47.2,31.8,23.9,19.4,12.4,9.2,57,45,28,30.00,29.92,9,3,9,0.00
2013-3-22,43.6,35.1,25.2,25.6,17.2,11.0,60,48,35,30.06,29.98,5,1,5,0.00
2013-3-23,52.9,44.4,39.1,40.2,32.8,24.8,77,64,54,30.02,29.77,5,1,5,0.00
2013-3-24,55.4,47.3,40.7,51.2,42.7,33.7,89,84,68,29.79,29.38,13,2,13,1.04
2013-3-25,40.7,33.9,30.4,34.5,29.3,27.5,91,83,72,29.97,29.57,13,5,13,0.01
2013-3-26,37.6,33.4,30.4,31.7,29.0,27.6,90,84,73,30.24,29.97,6,2,6,0.04
2013-3-27,51.7,37.3,32.2,32.4,27.6,22.9,83,69,44,30.31,30.22,12,2,12,0.01
2013-3-28,61.0,41.7,30.2,31.6,25.5,21.8,77,55,27,30.33,30.23,9,1,9,0.00
2013-3-29,49.0,41.1,34.4,36.7,30.1,22.4,84,66,44,30.33,30.22,6,1,6,0.11
2013-3-30,59.8,48.6,40.7,47.1,41.2,36.4,86,76,59,30.23,30.01,5,1,5,0.05
2013-3-31,59.0,52.8,48.4,53.0,48.7,43.4,93,86,77,30.01,29.86,9,2,9,0.43
2013-4-1,62.3,51.7,41.8,50.0,42.4,31.4,92,73,46,30.06,29.90,10,3,10,0.00
2013-4-2,58.3,45.5,36.0,33.6,25.4,20.8,62,47,25,30.21,30.06,7,2,7,0.00
2013-4-3,57.8,46.6,35.6,28.3,22.9,17.8,51,40,30,30.28,30.18,9,1,9,0.00
2013-4-4,46.4,42.1,39.1,36.0,29.8,19.8,86,65,35,30.18,29.97,8,2,8,0.60
2013-4-5,68.8,49.1,39.1,43.8,38.5,34.8,89,70,37,30.09,29.96,7,1,7,0.02
2013-4-6,70.9,56.6,42.3,42.7,37.7,32.5,73,51,32,30.19,30.07,6,1,6,0.00
2013-4-7,76.7,62.1,51.7,48.1,41.1,34.2,54,47,35,30.16,30.05,11,2,11,0.00
2013-4-8,77.4,65.4,54.4,54.8,47.8,41.0,66,54,41,30.11,30.02,11,2,11,0.00
2013-4-9,83.5,69.3,57.6,59.0,53.1,47.3,72,57,42,30.20,30.05,8,2,8,0.00
2013-4-10,86.4,72.1,59.6,60.9,56.0,50.9,76,58,41,30.13,29.90,8,2,8,0.00
2013-4-11,83.5,71.8,61.2,59.9,55.3,52.9,85,58,37,29.93,29.67,12,1,12,0.66
2013-4-12,65.0,58.4,52.2,57.3,47.7,37.1,91,70,43,29.95,29.62,10,3,10,0.33
2013-4-13,71.6,57.7,45.9,43.4,38.6,34.7,74,51,30,30.07,29.95,8,1,8,0.00
2013-4-14,74.2,60.5,49.0,47.7,41.8,34.3,70,51,37,30.06,29.95,8,1,8,0.02
2013-4-15,79.2,64.9,54.0,58.3,52.5,46.8,81,66,48,30.11,29.93,6,1,6,0.00
2013-4-16,83.2,69.2,56.0,62.6,57.0,50.2,83,66,49,30.25,30.11,6,1,6,0.00
2013-4-17,70.7,64.6,60.8,60.5,59.0,57.2,89,82,69,30.31,30.08,7,1,7,0.24
2013-4-18,83.5,69.2,58.7,65.6,57.9,53.1,91,70,40,30.08,29.85,6,1,6,0.00
2013-4-19,71.6,58.6,45.4,59.9,49.9,32.7,90,74,60,30.06,29.71,10,3,10,0.86
2013-4-20,61.9,48.3,38.0,37.4,32.7,29.6,74,57,34,30.28,30.06,5,1,5,0.00
2013-4-21,68.4,54.0,41.4,41.7,34.6,28.3,62,49,35,30.39,30.26,5,1,5,0.00
2013-4-22,72.2,58.1,46.1,47.2,40.0,34.8,67,52,39,30.34,30.15,5,1,5,0.00
2013-4-23,73.6,60.2,47.9,49.5,41.4,31.8,61,50,41,30.23,30.03,6,1,6,0.00
2013-4-24,72.2,59.0,46.1,58.7,49.7,41.0,88,72,54,30.23,29.99,10,2,10,0.23
2013-4-25,64.8,51.8,41.4,42.7,38.2,32.8,82,62,38,30.34,30.22,5,1,5,0.00
2013-4-26,66.6,55.7,44.1,43.4,38.2,32.1,71,53,36,30.41,30.29,4,1,4,0.00
2013-4-27,56.3,54.3,52.6,52.7,48.4,43.1,88,81,64,30.34,30.11,2,0,2,0.27
2013-4-28,56.9,54.0,52.4,54.1,51.2,49.0,92,90,87,30.15,29.93,6,1,6,1.18
2013-4-29,70.6,58.1,53.1,58.2,53.2,50.8,92,84,65,30.04,29.97,3,0,3,0.00
2013-4-30,78.7,65.2,54.0,61.9,55.5,49.9,88,72,48,30.10,29.98,4,0,4,0.00
2013-5-1,75.2,66.2,58.5,59.7,54.5,50.9,79,67,55,30.23,30.10,3,1,4,0.00
2013-5-2,75.2,65.3,57.6,59.5,53.4,49.0,77,66,56,30.22,30.13,4,1,4,0.00
2013-5-3,71.5,62.7,55.6,55.8,50.8,46.7,79,66,49,30.16,30.02,8,1,8,0.00
2013-5-4,63.5,57.4,52.6,51.5,47.3,39.9,88,69,59,30.03,29.93,7,1,7,0.58
2013-5-5,55.6,52.5,50.4,53.0,49.5,46.6,91,90,87,29.94,29.80,3,0,3,0.72
2013-5-6,62.6,53.6,48.6,55.4,49.4,46.0,93,86,71,29.93,29.79,4,1,4,0.15
2013-5-7,65.2,55.9,48.4,56.2,50.1,45.1,90,81,69,29.99,29.89,3,0,3,0.23
2013-5-8,68.0,59.7,54.5,61.2,55.6,51.6,93,86,75,30.08,29.94,4,1,4,0.01
2013-5-9,76.1,64.7,55.1,62.7,57.1,51.8,92,78,56,30.13,30.03,4,0,4,0.02
2013-5-10,72.0,65.8,59.8,63.3,57.7,53.6,83,75,70,30.10,29.96,5,1,5,0.00
2013-5-11,68.9,63.0,55.4,64.0,57.6,50.0,90,83,75,30.00,29.88,6,1,6,0.29
2013-5-12,63.2,55.1,50.4,50.2,42.9,34.5,87,66,41,30.13,29.98,5,1,5,0.00
2013-5-13,64.3,53.1,42.8,40.2,36.6,34.3,74,55,37,30.23,30.13,5,1,5,0.00
2013-5-14,75.2,60.5,47.3,55.2,45.4,35.2,73,58,48,30.24,30.04,6,1,6,0.00
2013-5-15,83.2,71.6,62.3,61.5,56.8,53.1,74,61,47,30.16,30.00,5,1,5,0.00
2013-5-16,76.9,69.8,63.4,62.2,57.1,51.6,72,64,56,30.09,30.00,3,0,3,0.00
2013-5-17,79.2,69.3,60.8,64.3,60.0,55.1,84,73,58,30.12,30.04,3,0,3,0.00
2013-5-18,69.8,66.1,63.0,65.7,61.8,58.0,91,86,74,30.11,30.04,2,0,2,0.23
2013-5-19,74.5,67.7,64.1,69.8,64.3,61.5,93,89,84,30.09,30.02,3,0,3,0.00
2013-5-20,81.4,70.2,62.6,70.5,64.4,59.8,92,82,67,30.15,30.02,3,0,3,0.00
2013-5-21,85.3,72.1,64.1,72.6,65.2,59.9,88,79,60,30.08,29.94,7,0,7,0.33
2013-5-22,79.6,67.3,61.4,70.4,62.8,58.5,91,85,66,30.00,29.87,9,0,9,0.48
2013-5-23,76.0,66.4,61.4,65.9,61.5,56.1,93,85,67,30.03,29.90,4,1,4,0.17
2013-5-24,69.3,60.4,55.4,56.3,50.1,43.8,87,70,49,30.28,30.02,5,1,5,0.00
2013-5-25,70.9,59.7,47.9,52.6,46.3,41.3,83,62,46,30.35,30.19,4,0,4,0.00
2013-5-26,74.9,64.1,55.4,53.7,49.5,44.3,76,60,46,30.30,30.20,3,0,3,0.00
2013-5-27,81.0,69.0,57.1,62.7,56.1,49.3,78,64,52,30.24,30.11,3,0,3,0.00
2013-5-28,83.9,73.4,63.9,65.3,60.6,56.3,80,65,51,30.21,30.10,4,0,4,0.00
2013-5-29,86.0,74.4,64.8,69.1,62.0,56.4,79,66,52,30.24,30.12,3,0,3,0.00
2013-5-30,85.9,74.5,63.4,66.3,61.9,56.3,81,65,51,30.26,30.12,3,0,3,0.00
2013-5-31,86.8,75.4,65.9,67.5,62.3,57.6,79,64,50,30.20,30.08,5,0,5,0.00
2013-6-1,87.3,76.9,69.5,67.3,63.2,60.1,81,64,48,30.11,29.97,4,1,4,0.03
2013-6-2,71.5,69.0,66.2,68.4,65.4,63.4,92,88,82,30.02,29.91,4,0,4,0.91
2013-6-3,77.8,69.2,64.3,67.3,63.5,59.1,94,83,65,30.03,29.93,3,0,3,0.00
2013-6-4,82.6,70.9,61.6,64.8,60.9,56.9,87,72,53,30.08,30.01,4,0,4,0.00
2013-6-5,84.1,70.9,65.7,71.5,63.9,59.7,90,79,64,30.09,29.94,4,0,4,0.85
2013-6-6,77.4,69.9,63.9,70.0,65.5,61.2,93,86,77,29.97,29.80,3,0,3,0.00
2013-6-7,81.2,71.7,67.7,70.4,66.4,63.8,93,84,66,29.89,29.75,3,0,3,0.34
2013-6-8,79.6,69.7,62.8,68.8,64.0,59.9,92,82,67,30.11,29.89,3,0,3,0.12
2013-6-9,81.4,70.8,66.6,70.7,65.4,62.3,93,83,70,30.14,30.02,2,0,2,1.47
2013-6-10,77.4,69.7,66.8,67.9,65.5,63.5,94,87,69,30.03,29.90,6,1,6,0.22
2013-6-11,84.1,72.0,64.4,70.2,65.6,61.8,93,81,62,30.08,29.97,3,0,3,0.00
2013-6-12,87.7,77.9,70.0,77.0,70.3,64.4,86,78,67,30.08,29.95,3,1,3,0.00
2013-6-13,82.3,75.0,66.4,75.1,69.4,61.2,87,83,77,29.97,29.78,6,1,6,0.13
2013-6-14,81.5,67.2,61.2,63.3,59.7,57.2,88,78,52,30.09,29.92,2,0,2,0.00
2013-6-15,85.0,73.5,60.7,67.5,61.9,55.5,85,68,55,30.17,30.07,3,0,3,0.00
2013-6-16,81.7,74.0,67.1,69.0,64.8,60.8,84,73,64,30.15,30.04,4,0,4,0.12
2013-6-17,80.6,72.3,68.2,72.6,67.8,64.7,91,86,75,30.10,29.97,3,0,3,0.07
2013-6-18,73.8,69.2,66.2,69.0,65.8,62.8,93,89,84,30.01,29.88,3,0,3,0.24
2013-6-19,81.9,71.0,63.2,68.2,64.4,60.4,93,81,62,30.12,29.98,2,0,2,0.00
2013-6-20,85.0,73.5,65.2,71.9,65.9,60.8,89,78,63,30.22,30.11,3,0,3,0.00
2013-6-21,84.6,74.4,68.8,71.3,66.6,63.6,85,77,63,30.28,30.18,3,0,3,0.00
2013-6-23,86.0,79.2,72.4,71.5,67.2,64.2,77,67,60,30.19,30.13,2,0,2,0.00
2013-6-24,84.6,75.5,68.8,73.2,67.9,63.5,88,78,66,30.26,30.11,3,0,3,0.07
2013-6-25,82.6,75.0,70.7,74.2,69.1,65.8,89,82,74,30.19,30.06,3,0,3,0.03
2013-6-26,82.6,75.0,70.7,74.3,69.4,66.6,90,83,67,30.09,29.93,5,0,5,0.00
2013-6-27,79.6,72.1,65.5,76.2,69.2,62.6,94,90,82,29.96,29.83,5,1,5,0.29
2013-6-28,79.0,72.3,69.1,74.0,69.4,66.5,94,91,82,29.89,29.72,4,0,4,0.11
2013-6-29,81.7,72.6,65.3,70.1,65.6,62.2,93,80,61,29.76,29.70,3,0,3,0.00
2013-6-30,84.1,74.2,66.6,68.8,64.1,60.3,85,72,53,29.85,29.73,3,0,3,0.33
2013-7-1,79.4,70.3,65.9,70.2,66.1,62.6,92,87,72,29.95,29.82,4,0,4,0.04
2013-7-2,78.5,70.3,65.9,71.3,66.5,63.0,92,88,77,30.10,29.94,2,0,2,0.13
2013-7-3,73.8,69.5,65.2,70.4,66.7,62.8,93,91,88,30.20,30.09,2,0,2,0.22
2013-7-4,75.6,68.7,64.6,73.5,66.6,62.6,94,93,91,30.21,30.13,2,0,2,0.27
2013-7-5,78.8,71.4,67.9,73.8,68.8,65.9,94,91,81,30.22,30.14,3,0,3,0.00
2013-7-6,80.6,71.4,68.0,74.5,68.6,65.4,95,91,80,30.21,30.09,6,0,7,0.25
2013-7-7,71.5,68.4,67.3,69.3,66.5,65.1,94,94,91,30.21,30.12,2,0,2,1.30
2013-7-8,83.2,72.9,67.3,72.4,68.2,65.2,94,86,68,30.25,30.15,2,0,3,0.00
2013-7-9,86.9,75.7,68.0,75.4,69.9,65.0,91,83,66,30.21,30.09,2,0,2,0.00
2013-7-10,84.6,74.6,70.0,76.5,70.6,66.2,93,87,71,30.13,29.98,7,0,7,0.55
2013-7-11,83.0,74.0,69.8,75.1,70.2,67.9,94,88,76,30.03,29.93,2,0,2,0.00
2013-7-12,83.2,73.8,68.0,70.7,66.4,62.7,90,78,61,30.03,29.95,3,0,3,0.00
2013-7-13,83.0,73.7,66.2,71.2,65.6,61.2,86,76,66,30.13,29.99,3,0,3,0.00
2013-7-14,81.7,74.7,69.7,72.8,67.9,64.5,88,80,72,30.27,30.11,4,1,4,0.00
2013-7-15,86.8,77.1,69.5,73.6,68.8,64.5,86,76,63,30.34,30.26,3,0,3,0.00
2013-7-16,90.2,78.6,69.5,73.6,68.9,64.4,86,73,55,30.38,30.28,4,0,4,0.00
2013-7-17,85.9,77.5,70.9,75.1,70.8,67.2,89,80,68,30.34,30.22,4,0,4,0.08
2013-7-18,87.1,75.6,69.1,77.7,70.7,66.3,92,85,72,30.28,30.11,2,0,2,0.00
2013-7-19,86.8,77.6,70.7,76.7,71.5,67.0,90,82,70,30.16,30.02,0,0,0,0.00
2013-7-20,85.0,76.7,70.6,75.9,70.6,66.2,89,82,72,30.08,29.97,4,0,5,0.00
2013-7-21,80.6,73.3,70.4,73.3,69.3,66.7,91,87,77,30.06,29.98,5,0,5,0.34
2013-7-22,78.5,72.1,69.5,72.7,69.2,67.1,94,90,81,30.04,29.87,7,1,7,0.33
2013-7-23,80.3,71.7,68.6,74.2,69.0,66.4,95,91,81,29.98,29.86,6,1,6,0.23
2013-7-24,79.9,74.2,69.8,74.4,70.2,65.8,95,88,74,29.94,29.85,2,0,2,0.00
2013-7-25,83.2,72.8,66.8,68.5,65.2,61.2,89,78,59,30.09,29.93,3,0,3,0.00
2013-7-26,84.4,71.0,62.3,72.4,64.4,57.7,90,80,67,30.12,30.03,6,0,6,0.33
2013-7-27,76.9,71.5,67.5,72.2,67.4,64.7,93,87,75,30.05,29.93,2,0,2,0.01
2013-7-28,79.4,71.4,66.6,69.2,65.7,59.1,92,82,70,30.10,29.94,3,0,3,0.06
2013-7-29,79.7,69.1,61.4,63.2,59.5,56.7,87,72,55,30.23,30.09,3,0,3,0.00
2013-7-30,73.3,67.6,60.3,66.1,61.5,56.0,87,81,74,30.26,30.17,2,0,2,0.00
2013-7-31,73.3,68.3,63.7,69.5,65.1,60.5,93,89,81,30.21,30.01,2,0,2,0.23
2013-8-1,81.7,73.7,69.7,71.8,68.8,66.2,94,85,71,30.03,29.97,3,0,3,0.01
2013-8-2,82.1,73.3,66.8,68.8,66.0,63.3,91,79,59,30.09,30.01,3,0,3,0.00
2013-8-3,79.7,73.5,67.9,71.1,67.3,62.7,88,81,74,30.08,30.02,3,0,3,0.00
2013-8-4,79.9,74.5,69.8,70.0,67.1,61.1,91,78,63,30.11,30.03,3,0,3,0.00
2013-8-5,82.1,72.4,64.3,67.4,63.5,59.3,87,74,58,30.11,30.00,3,0,3,0.00
2013-8-6,83.7,74.9,68.6,73.3,67.3,62.7,86,77,70,30.06,29.99,2,0,2,0.00
2013-8-7,79.9,75.5,73.3,74.7,70.9,69.0,91,86,81,30.08,29.99,2,0,2,0.09
2013-8-8,78.8,74.8,71.6,74.9,71.1,68.0,92,88,85,30.09,30.01,2,0,2,0.08
2013-8-9,84.1,75.8,70.0,76.2,71.1,67.1,92,86,76,30.11,30.03,4,0,4,0.02
2013-8-10,84.1,74.5,70.9,76.4,71.1,68.1,94,89,75,30.16,30.10,6,0,6,0.18
2013-8-11,82.6,73.5,69.5,76.0,70.3,67.1,94,90,78,30.20,30.10,4,0,4,0.00
2013-8-12,80.3,74.3,70.0,74.7,70.7,67.4,94,89,82,30.16,30.01,3,0,3,0.00
2013-8-13,77.4,73.5,70.4,74.3,69.9,65.6,93,89,84,30.03,29.91,6,1,6,0.37
2013-8-14,75.2,68.9,63.0,66.0,61.6,56.0,88,78,61,30.11,29.98,5,0,5,0.01
2013-8-15,77.8,67.2,59.0,66.7,60.0,53.5,83,78,67,30.12,30.05,3,0,3,0.00
2013-8-16,79.0,69.5,63.0,67.0,61.6,57.3,84,76,64,30.14,30.06,3,0,3,0.00
2013-8-17,71.6,67.5,62.8,64.8,61.4,57.1,90,81,77,30.18,30.11,2,0,2,0.10
2013-8-18,76.0,69.2,65.5,69.5,65.4,62.6,92,88,75,30.22,30.13,4,0,4,0.04
2013-8-19,76.0,72.7,68.9,70.5,68.8,66.8,93,87,81,30.18,30.10,3,0,3,0.04
2013-8-20,79.6,72.7,66.1,72.4,68.3,63.4,93,86,77,30.21,30.12,2,0,2,0.00
2013-8-21,78.8,72.7,69.8,72.5,69.1,66.3,92,89,79,30.25,30.16,3,0,3,0.14
2013-8-22,82.3,74.1,68.2,73.5,69.4,66.1,94,86,73,30.21,30.08,2,0,2,0.01
2013-8-23,80.3,72.3,68.0,73.6,68.6,65.2,93,88,74,30.13,30.06,6,0,6,0.07
2013-8-24,81.2,71.6,65.2,71.0,65.3,60.2,94,82,61,30.28,30.13,3,0,3,0.00
2013-8-25,80.5,70.7,62.8,66.2,60.6,56.7,84,71,54,30.39,30.28,3,0,3,0.00
2013-8-26,81.4,70.7,62.1,68.8,62.5,56.3,86,76,62,30.35,30.17,4,0,4,0.00
2013-8-27,81.0,72.9,66.2,72.2,66.7,61.6,88,81,73,30.19,30.08,2,0,2,0.00
2013-8-28,82.8,76.0,70.2,73.5,69.6,66.3,89,81,71,30.11,30.02,3,0,3,0.00
2013-8-29,84.2,77.7,73.1,76.0,71.3,68.9,89,81,70,30.06,29.98,4,0,4,0.00
2013-8-30,85.9,77.1,69.3,74.0,70.0,65.6,90,79,65,30.06,29.95,3,0,3,0.00
2013-8-31,85.3,76.7,70.7,76.4,71.6,66.3,93,84,73,30.02,29.89,4,0,4,0.19
2013-9-1,80.5,73.3,68.9,74.2,68.7,66.2,92,86,73,29.95,29.87,4,0,4,0.23
2013-9-2,77.8,72.8,68.8,72.9,69.1,66.0,93,88,85,29.99,29.89,2,0,2,0.00
2013-9-3,79.6,71.2,65.9,71.6,66.6,63.4,94,86,72,30.06,29.91,4,0,4,1.04
2013-9-4,80.1,70.8,62.6,68.5,63.6,59.4,91,79,66,30.16,30.05,3,0,3,0.00
2013-9-5,77.8,69.9,61.7,67.3,62.9,58.2,90,79,68,30.20,30.14,2,0,2,0.00
2013-9-6,81.4,71.6,62.6,67.8,63.5,59.0,90,76,58,30.21,30.10,3,0,3,0.00
2013-9-7,80.5,71.8,63.2,69.2,64.5,59.1,89,78,67,30.16,30.03,3,0,3,0.00
2013-9-8,81.4,74.1,68.4,71.2,66.6,63.9,88,78,66,30.06,30.00,3,0,3,0.00
2013-9-9,85.0,75.4,68.0,74.2,68.2,63.7,89,79,67,30.15,30.05,2,0,2,0.00
2013-9-10,85.9,77.0,69.5,72.6,68.7,64.7,87,76,63,30.26,30.15,3,0,3,0.00
2013-9-11,84.4,76.5,70.9,74.3,69.3,66.3,87,79,68,30.26,30.14,4,0,4,0.00
2013-9-12,80.6,73.1,67.3,74.4,68.5,64.3,91,86,78,30.14,29.94,5,0,5,0.11
2013-9-13,73.3,67.4,60.3,65.1,60.2,51.1,94,79,60,30.02,29.93,4,0,4,0.00
2013-9-14,74.5,62.0,52.7,57.7,52.0,47.4,84,70,53,30.11,30.01,3,0,4,0.00
2013-9-15,78.1,66.1,55.1,65.0,57.4,50.3,87,74,61,30.20,30.11,3,0,3,0.00
2013-9-16,76.5,68.0,62.6,66.2,61.4,58.2,88,80,69,30.21,30.13,2,0,2,0.00
2013-9-17,76.9,67.5,60.5,66.0,60.1,54.7,83,77,66,30.25,30.16,2,0,2,0.00
2013-9-18,67.0,64.4,61.2,62.3,58.8,55.4,87,82,76,30.25,30.16,1,0,1,0.00
2013-9-19,78.1,68.8,62.3,68.9,63.4,59.0,91,83,73,30.21,30.09,2,0,2,0.00
2013-9-20,78.3,71.6,65.5,68.1,65.0,61.8,89,80,68,30.11,29.93,2,0,2,0.00
2013-9-21,71.5,66.0,60.3,64.3,62.5,57.7,92,89,78,29.93,29.79,3,0,3,0.73
2013-9-22,70.2,60.5,55.8,59.6,55.9,53.5,93,85,66,29.97,29.85,1,0,1,0.00
2013-9-23,73.4,62.9,52.9,62.5,56.2,49.4,89,79,67,30.05,29.96,2,0,2,0.00
2013-9-24,74.7,67.0,58.7,63.8,60.1,55.2,89,79,66,30.08,29.93,1,0,1,0.00
2013-9-25,67.5,65.5,63.4,64.7,62.4,60.5,92,89,84,29.94,29.87,0,0,0,0.22
2013-9-26,72.7,67.2,61.6,64.3,61.2,56.3,93,81,71,30.06,29.91,2,0,2,0.00
2013-9-27,67.9,60.2,57.1,62.2,56.3,53.6,91,87,81,30.18,30.06,0,0,0,0.00
2013-9-28,72.7,68.9,63.9,62.0,59.8,57.2,79,73,68,30.22,30.12,1,0,1,0.00
2013-9-29,68.8,64.0,57.2,60.8,58.1,53.1,87,81,75,30.16,30.04,2,0,2,0.00
2013-9-30,72.4,64.8,59.0,62.2,58.9,55.8,91,81,67,30.11,30.02,2,0,2,0.00
2013-10-1,73.3,66.4,59.9,63.6,59.9,56.4,90,80,68,30.18,30.08,2,0,2,0.00
2013-10-2,76.0,67.9,60.5,67.2,61.6,56.3,88,81,71,30.21,30.10,2,0,2,0.00
2013-10-3,76.9,69.2,62.8,67.0,62.9,59.1,89,81,70,30.18,30.08,3,0,3,0.00
2013-10-4,77.6,70.1,63.2,67.4,63.2,59.3,90,79,67,30.20,30.12,2,0,2,0.00
2013-10-5,79.9,71.2,63.0,68.9,64.0,58.6,88,78,67,30.18,30.04,2,0,2,0.00
2013-10-6,79.9,71.8,63.5,68.0,63.3,59.1,89,75,59,30.05,29.85,4,0,4,0.04
2013-10-7,68.4,59.4,54.7,62.7,52.9,48.3,91,80,62,30.11,29.86,3,0,3,0.13
2013-10-8,68.8,58.5,49.9,54.0,49.4,44.7,84,72,58,30.16,30.09,3,0,3,0.00
2013-10-9,70.7,61.2,52.0,57.8,52.1,46.3,82,72,61,30.23,30.13,3,0,3,0.00
2013-10-10,70.4,61.2,51.8,55.3,51.6,45.7,82,71,56,30.18,30.06,0,0,0,0.00
2013-10-11,73.3,63.5,54.4,60.2,55.0,49.6,87,74,61,30.11,30.01,0,0,0,0.00
2013-10-12,74.2,65.3,57.1,61.6,57.3,52.4,87,76,63,30.14,30.03,2,0,3,0.00
2013-10-13,72.0,66.8,63.9,63.6,61.3,58.5,88,83,74,30.24,30.14,2,0,2,0.00
2013-10-14,74.0,66.8,60.7,63.8,60.3,57.6,90,80,67,30.26,30.13,3,0,3,0.00
2013-10-15,71.8,65.3,59.8,62.2,58.5,54.3,84,79,71,30.16,30.04,2,0,2,0.00
2013-10-16,68.6,63.9,60.5,60.6,58.5,56.3,86,82,76,30.08,29.99,3,0,3,0.00
2013-10-17,65.2,61.2,55.4,63.4,57.9,50.6,94,89,84,30.03,29.87,3,0,3,0.27
2013-10-18,60.5,54.9,49.7,51.1,48.9,46.3,89,81,66,30.08,29.98,2,0,2,0.00
2013-10-19,60.1,54.4,48.8,52.5,49.1,42.8,88,83,73,30.03,29.91,5,0,5,0.00
2013-10-20,58.5,50.0,41.2,45.9,41.7,37.3,88,74,53,30.11,30.03,3,0,3,0.00
2013-10-21,64.1,53.4,42.5,51.0,44.4,37.5,85,72,57,30.12,30.00,3,0,3,0.00
2013-10-22,62.3,56.8,52.2,52.4,49.2,46.0,84,76,69,30.02,29.86,4,0,4,0.00
2013-10-23,52.2,47.0,39.8,47.5,40.2,32.5,88,78,68,30.09,29.79,5,1,5,0.00
2013-10-24,49.9,43.5,37.4,39.4,36.2,31.8,85,76,66,30.24,30.08,4,1,4,0.00
2013-10-25,47.2,39.9,33.8,33.5,29.9,26.7,79,68,54,30.42,30.24,3,0,4,0.00
2013-10-26,53.8,42.7,29.9,36.1,30.6,24.8,83,64,46,30.32,30.08,4,1,4,0.00
2013-10-27,61.7,54.7,49.5,48.6,42.0,34.5,76,62,51,30.14,30.08,4,1,4,0.00
2013-10-28,63.4,57.5,53.1,56.0,51.5,47.6,89,81,72,30.28,30.12,3,0,3,0.03
2013-10-29,67.7,60.3,55.3,56.8,52.7,50.9,88,77,60,30.34,30.23,3,0,3,0.00
2013-10-30,73.8,64.9,58.9,60.3,55.2,51.1,85,71,58,30.28,30.15,4,1,4,0.00
2013-10-31,70.9,64.9,59.4,59.4,55.8,52.9,81,73,60,30.15,29.70,5,1,5,0.00
2013-11-1,70.2,63.2,56.0,61.3,54.8,45.5,92,75,58,29.82,29.68,6,2,6,0.20
2013-11-2,59.4,53.3,48.2,47.1,42.5,37.8,82,67,50,30.08,29.80,5,1,5,0.00
2013-11-3,55.3,47.8,41.8,40.8,37.8,33.9,82,69,54,30.30,30.08,4,0,4,0.00
2013-11-4,61.6,50.4,41.6,41.6,36.7,33.1,73,60,46,30.40,30.30,4,0,4,0.00
2013-11-5,54.9,52.9,50.0,35.6,32.7,30.2,57,46,42,30.39,30.31,2,1,2,0.00
2013-11-6,72.4,60.1,49.3,55.1,47.7,34.2,78,64,50,30.32,30.07,3,1,3,0.00
2013-11-7,61.7,51.2,41.0,54.4,43.3,31.9,90,75,62,30.26,30.03,4,1,4,0.35
2013-11-8,53.3,43.4,35.8,32.0,30.0,27.9,76,60,43,30.37,30.26,6,0,6,0.00
2013-11-9,53.6,44.2,35.6,36.0,30.9,25.7,71,60,49,30.30,30.20,2,1,2,0.00
2013-11-10,63.7,53.0,43.6,43.6,35.3,26.6,70,52,39,30.30,30.22,5,1,5,0.00
2013-11-11,62.3,49.2,38.0,35.5,29.3,25.2,66,47,31,30.31,30.15,4,0,4,0.00
2013-11-12,51.5,40.4,28.3,38.9,27.9,16.7,74,61,45,30.52,30.11,8,1,8,0.02
2013-11-13,45.2,32.6,25.0,25.9,19.7,16.0,73,59,45,30.60,30.43,5,0,5,0.00
2013-11-14,57.2,39.4,27.5,30.2,23.0,18.4,70,54,33,30.45,30.26,4,0,4,0.00
2013-11-15,48.4,41.7,34.4,39.7,30.2,22.3,85,64,49,30.28,30.15,4,0,4,0.03
2013-11-16,66.6,53.5,43.4,56.2,47.9,39.2,89,82,68,30.22,30.09,4,0,4,0.00
2013-11-17,64.4,55.7,50.6,58.0,51.1,46.6,89,85,76,30.11,29.92,3,1,3,0.05
2013-11-20,58.7,48.6,38.2,35.6,30.5,27.3,66,50,39,30.30,30.17,5,1,7,0.00
2013-11-21,69.5,52.6,40.5,50.8,40.5,28.5,76,64,51,30.36,30.24,6,1,6,0.00
2013-11-22,55.1,52.9,51.8,51.4,46.3,44.4,91,78,73,30.30,30.20,3,0,3,0.09
2013-11-23,52.6,44.0,31.0,49.7,37.1,20.3,90,77,59,30.36,30.18,7,2,7,0.00
2013-11-24,37.8,29.2,22.7,20.7,14.8,9.8,67,55,41,30.54,30.35,6,1,6,0.00
2013-11-25,36.4,30.9,23.4,27.0,17.0,9.9,76,56,50,30.43,30.16,2,0,2,0.04
2013-11-26,44.8,39.2,33.8,42.5,35.8,27.0,92,87,76,30.17,29.72,5,1,5,1.24
2013-11-27,37.1,30.7,24.8,34.4,26.7,19.0,91,85,77,30.26,29.77,3,0,3,0.02
2013-11-28,41.9,29.5,21.6,31.4,22.4,17.1,84,75,63,30.45,30.25,4,0,4,0.02
2013-11-29,50.6,36.1,26.8,34.8,26.8,22.3,85,70,50,30.55,30.44,5,0,5,0.00
2013-11-30,54.4,40.2,31.9,36.4,29.0,24.2,74,65,48,30.48,30.27,4,0,4,0.00
2013-12-1,56.2,43.0,32.2,39.3,32.1,25.4,77,66,52,30.28,30.00,5,1,5,0.00
2013-12-2,48.2,45.9,43.9,41.0,38.6,34.9,81,76,67,30.00,29.82,2,0,2,0.00
2013-12-3,58.3,50.5,45.4,50.0,44.8,40.4,87,81,73,29.90,29.83,4,0,4,0.00
2013-12-4,70.2,58.4,49.7,57.0,50.9,44.8,86,77,62,29.99,29.89,5,1,5,0.00
2013-12-5,71.3,63.4,56.0,62.2,56.7,49.5,90,79,70,30.04,29.94,8,2,8,0.04
2013-12-6,62.8,51.0,39.6,60.2,48.3,37.0,93,91,88,30.16,29.89,8,1,8,1.02
2013-12-7,40.0,37.7,34.6,37.2,34.7,30.7,92,89,86,30.39,30.14,6,1,6,0.00
2013-12-8,44.3,41.3,34.7,41.8,38.6,30.9,92,90,86,30.32,30.06,4,0,4,0.34
2013-12-9,49.0,45.0,41.2,47.2,43.1,39.0,94,93,91,30.13,29.99,3,1,3,0.31
2013-12-10,42.1,36.3,29.7,40.2,32.0,23.9,93,85,69,30.33,29.96,8,1,8,0.29
2013-12-11,46.8,34.3,25.7,34.3,26.1,21.9,87,73,50,30.41,30.29,5,1,5,0.00
2013-12-12,40.9,31.1,24.8,25.1,20.0,15.6,76,64,47,30.47,30.34,5,1,5,0.00
2013-12-13,50.8,35.3,25.2,30.1,22.0,15.6,72,59,43,30.36,30.08,5,1,5,0.00
2013-12-14,47.2,43.0,38.7,45.3,36.1,25.4,93,77,56,30.14,29.77,7,1,7,0.31
2013-12-15,45.2,35.2,30.6,43.0,31.0,26.2,92,85,80,30.15,29.79,7,2,7,0.01
2013-12-16,48.4,37.4,28.6,36.9,30.4,24.9,89,77,58,30.19,30.06,8,2,8,0.00
2013-12-17,54.4,44.5,36.5,38.1,32.4,24.6,73,63,52,30.18,29.95,10,4,10,0.00
2013-12-18,47.3,36.6,29.0,26.3,22.6,20.4,73,58,39,30.30,30.18,7,1,7,0.00
2013-12-19,56.9,41.1,29.3,34.6,25.5,18.7,67,54,41,30.28,30.12,4,1,4,0.00
2013-12-20,57.6,47.5,38.5,39.7,33.2,26.0,68,58,49,30.16,30.05,4,1,4,0.00
2013-12-21,70.6,60.0,49.3,59.8,48.8,38.3,73,67,62,30.05,29.82,8,2,8,0.00
2013-12-22,70.9,58.8,54.4,61.3,54.8,51.8,92,87,70,30.06,29.82,11,2,11,1.18
2013-12-23,54.4,43.3,34.0,52.0,39.9,29.6,93,88,84,30.29,30.00,6,2,6,0.07
2013-12-24,37.1,30.9,23.9,29.6,22.9,15.8,84,72,56,30.41,30.27,6,2,6,0.00
2013-12-25,46.6,30.2,20.2,32.2,20.8,14.0,78,68,55,30.40,30.26,4,0,4,0.00
2013-12-26,49.0,36.6,29.2,32.9,25.8,22.3,77,65,49,30.34,30.25,5,1,5,0.00
2013-12-27,53.5,38.4,28.8,35.8,26.1,21.2,77,62,42,30.43,30.30,4,1,4,0.00
2013-12-28,45.4,37.8,30.6,36.3,28.7,22.0,86,70,58,30.36,29.96,5,0,5,0.25
2013-12-29,45.2,42.8,40.1,43.0,40.1,36.3,93,90,87,30.01,29.80,7,2,7,0.52
2013-12-30,41.4,37.4,34.2,39.2,33.6,29.8,92,86,81,30.18,30.00,3,1,4,0.00
2013-12-31,43.7,33.6,28.4,31.8,27.1,23.9,90,77,60,30.39,30.16,6,1,6,0.00
2014-1-1,49.0,35.1,26.8,34.4,26.3,21.8,83,71,51,30.30,30.05,4,0,4,0.00
2014-1-2,38.2,33.1,20.0,36.0,27.8,13.7,92,81,70,30.08,29.72,11,2,11,0.26